Location: Grand Rapids
(42.9630°N, 85.6680°W)
Time: 15:40:04
(UTC-04:00)

Envisat - Pass Details

Date: 24 April 2024
Orbit: 762 x 764 km, 98.3° (Epoch: 20 May)

Event Time Altitude Azimuth Distance (km) Brightness Sun altitude
Rises 05:46:45 0° 6° (N) 3,237 6.8 -10.7°
Reaches altitude 10° 05:49:10 10° 359° (N) 2,306 5.9 -10.3°
Maximum altitude 05:53:53 40° 291° (WNW) 1,111 3.6 -9.6°
Drops below altitude 10° 05:58:35 10° 222° (SW) 2,291 4.9 -8.8°
Enters shadow 05:58:50 - 221° (SW) 2,390 5.0 -8.8°
